Regional Weather Roundup
Issued by NWS New Orleans/Baton Rouge, LA

Home | Current Version | Previous Version | Text Only | Print | Product List | Glossary On
Versions: 1 2 3 4 5 6 7 8 9 10 11 12 13 14 15 16 17 18 19 20 21 22 23 24 25 26 27 28 29 30 31 32 33 34 35 36 37 38 39 40 41 42 43 44 45 46 47 48 49 50
050
ASUS44 KLIX 012310
RWRLIX
NEW ORLEANS REGIONAL WEATHER ROUNDUP
NATIONAL WEATHER SERVICE NEW ORLEANS LA
600 PM CDT FRI AUG 01 2014

NOTE: "FAIR" INDICATES FEW OR NO CLOUDS BELOW 12,000 FEET WITH NO
      SIGNIFICANT WEATHER AND/OR OBSTRUCTIONS TO VISIBILITY.
      SKY/WX - SKY CONDITION AND SIGNIFICANT WEATHER.
      TMP - AIR TEMPERATURE.     DP    - DEWPOINT TEMPERATURE.
      RH  - RELATIVE HUMIDITY.   PRES  - PRESSURE.
      HI  - HEAT INDEX.          WCI   - WIND CHILL INDEX.

*  THESE STATIONS ARE NOT NWS OR FAA STATIONS AND ARE NOT UNDER
   NWS QUALITY CONTROL.

LAZ038-040-048-061>063-065>067-069-020000-
SOUTHEAST LOUISIANA

CITY           SKY/WX    TMP DP  RH WIND       PRES   REMARKS
N.O. AUDUBON     N/A     88  66  47 MISG        N/A
N.O. INTL ARPT CLOUDY    84  67  56 S8        29.96S
N.O. LAKEFRONT CLOUDY    84  71  65 E12       29.96F
N.O. DOWNTOWN*   N/A     86  68  54 S6        29.96S
SLIDELL        LGT RAIN  83  72  69 NE5       29.96F
BATON ROUGE    PTSUNNY   80  73  79 E7        29.95F
BOOTHVILLE     PTSUNNY   83  70  64 E5        29.97F
BELLE CHASSE   CLOUDY    85  66  53 S6        29.95F
BOGALUSA*      NOT AVBL
GALLIANO*      NOT AVBL
NEW ROADS*     NOT AVBL
GONZALES*      NOT AVBL
HAMMOND*       PTSUNNY   84  70  61 E5        29.97F
HOUMA*         MOSUNNY   84  68  58 CALM      29.95F
PORT FOURCHON* CLEAR     84  68  58 S5        29.97F

$$

MSZ070-080>082-020000-
SOUTHERN MISSISSIPPI

CITY           SKY/WX    TMP DP  RH WIND       PRES   REMARKS
MCCOMB         PTSUNNY   74  70  87 E3        29.99F
GULFPORT       CLOUDY    84  70  62 CALM      29.97F
BILOXI         CLOUDY    82  68  62 E1        29.97F
PASCAGOULA     CLOUDY    82  68  62 CALM      29.98S
STENNIS ARPT*  SUNNY    N/A N/A N/A CALM      29.97

$$

COASTAL OBSERVATIONS
LAKE AND NEARSHORE STATIONS

STATION/POSITION TIME  TEMP    WIND        PRES    WAVE
                       AIR SEA DIR/SP/G            HT/PER
                 (UTC) (F)     (DEG/KT/KT) (MB)    (FT/S)
PASCAGOULA       2300   84     360/  4/  5 1014.5
WAVELAND YACHT   2300   82     110/  6/  7 1014.2
GRAND ISLE       2300   83 86  140/  4/  5 1015.2
SOUTHWEST PASS   2300   87 86  130/  2/  4 1015.1
NEW CANAL        2300   85 83  110/  2/  5 1014.9
SHELL BEACH      2300   83 82  120/  8/  9 1014.3

OFFSHORE STATIONS

STATION/POSITION TIME  TEMP    WIND        PRES    WAVE
                       AIR SEA DIR/SP/G            HT/PER
                 (UTC) (F)     (DEG/KT/KT) (MB)    (FT/S)
64 S DAUPHIN ISL 2246   82 87  340/  6/  8 1015.0

$$




USA.gov is the U.S. government's official web portal to all federal, state and local government web resources and services.